Time,TemperatureF,DewpointF,PressureIn,WindDirection,WindDirectionDegrees,WindSpeedMPH,WindSpeedGustMPH,Humidity,HourlyPrecipIn,Conditions,Clouds,dailyrainin,SoftwareType,DateUTC
2013-05-02 00:03:00,38.5,11.1,30.69,South,173,2.0,2.0,32,0.00,,,0.00,meteohub,2013-05-02 07:03:00,
2013-05-02 00:09:00,37.9,11.3,30.69,South,169,2.0,2.0,33,0.00,,,0.00,meteohub,2013-05-02 07:09:00,
2013-05-02 00:14:00,37.6,11.1,30.69,South,175,1.0,4.0,33,0.00,,,0.00,meteohub,2013-05-02 07:14:00,
2013-05-02 00:19:00,37.6,11.1,30.69,South,175,2.0,4.0,33,0.00,,,0.00,meteohub,2013-05-02 07:19:00,
2013-05-02 00:24:00,37.2,10.8,30.69,South,175,0.0,4.0,33,0.00,,,0.00,meteohub,2013-05-02 07:24:00,
2013-05-02 00:29:00,36.9,11.1,30.69,SSE,159,0.0,3.0,34,0.00,,,0.00,meteohub,2013-05-02 07:29:00,
2013-05-02 00:34:00,36.7,11.7,30.69,South,180,2.0,3.0,35,0.00,,,0.00,meteohub,2013-05-02 07:34:00,
2013-05-02 00:39:00,36.3,11.3,30.69,SSE,157,1.0,2.0,35,0.00,,,0.00,meteohub,2013-05-02 07:39:00,
2013-05-02 00:44:00,36.0,10.9,30.69,SSE,152,0.0,3.0,35,0.00,,,0.00,meteohub,2013-05-02 07:44:00,
2013-05-02 00:49:00,35.8,10.8,30.69,SSE,159,1.0,3.0,35,0.00,,,0.00,meteohub,2013-05-02 07:49:00,
2013-05-02 00:54:00,35.8,10.8,30.69,SSE,168,1.0,3.0,35,0.00,,,0.00,meteohub,2013-05-02 07:54:00,
2013-05-02 00:59:00,35.4,10.4,30.69,South,176,1.0,2.0,35,0.00,,,0.00,meteohub,2013-05-02 07:59:00,
2013-05-02 01:04:00,35.1,11.5,30.69,SSE,161,1.0,2.0,37,0.00,,,0.00,meteohub,2013-05-02 08:04:00,
2013-05-02 01:09:00,34.9,11.3,30.69,SSE,163,3.0,3.0,37,0.00,,,0.00,meteohub,2013-05-02 08:09:00,
2013-05-02 01:14:00,34.7,11.1,30.69,SSE,159,1.0,3.0,37,0.00,,,0.00,meteohub,2013-05-02 08:14:00,
2013-05-02 01:19:00,34.3,10.8,30.69,SSE,153,2.0,3.0,37,0.00,,,0.00,meteohub,2013-05-02 08:19:00,
2013-05-02 01:24:00,34.2,10.6,30.69,SSE,163,2.0,3.0,37,0.00,,,0.00,meteohub,2013-05-02 08:24:00,
2013-05-02 01:29:00,33.8,10.9,30.69,SSE,154,2.0,3.0,38,0.00,,,0.00,meteohub,2013-05-02 08:29:00,
2013-05-02 01:34:00,33.6,10.8,30.69,South,173,2.0,3.0,38,0.00,,,0.00,meteohub,2013-05-02 08:34:00,
2013-05-02 01:39:00,33.3,10.4,30.69,SSE,161,2.0,3.0,38,0.00,,,0.00,meteohub,2013-05-02 08:39:00,
2013-05-02 01:44:00,33.3,10.9,30.69,South,172,2.0,3.0,39,0.00,,,0.00,meteohub,2013-05-02 08:44:00,
2013-05-02 01:49:00,33.1,9.7,30.69,SSE,159,2.0,3.0,37,0.00,,,0.00,meteohub,2013-05-02 08:49:00,
2013-05-02 01:54:00,32.9,10.0,30.69,SSE,168,2.0,3.0,38,0.00,,,0.00,meteohub,2013-05-02 08:54:00,
2013-05-02 01:59:00,32.9,10.6,30.69,South,179,1.0,3.0,39,0.00,,,0.00,meteohub,2013-05-02 08:59:00,
2013-05-02 02:04:00,32.9,10.6,30.69,SSE,165,2.0,3.0,39,0.00,,,0.00,meteohub,2013-05-02 09:04:00,
2013-05-02 02:09:00,33.1,11.3,30.69,SSE,155,2.0,2.0,40,0.00,,,0.00,meteohub,2013-05-02 09:09:00,
2013-05-02 02:14:00,32.7,11.1,30.69,SSE,155,2.0,2.0,40,0.00,,,0.00,meteohub,2013-05-02 09:14:00,
2013-05-02 02:19:00,32.2,10.6,30.69,SSE,159,2.0,3.0,40,0.00,,,0.00,meteohub,2013-05-02 09:19:00,
2013-05-02 02:24:00,31.8,10.2,30.69,SSE,148,2.0,3.0,40,0.00,,,0.00,meteohub,2013-05-02 09:24:00,
2013-05-02 02:29:00,31.6,10.6,30.69,SSE,156,3.0,3.0,41,0.00,,,0.00,meteohub,2013-05-02 09:29:00,
2013-05-02 02:34:00,31.5,10.4,30.69,SSE,157,3.0,3.0,41,0.00,,,0.00,meteohub,2013-05-02 09:34:00,
2013-05-02 02:39:00,31.5,10.9,30.69,South,171,2.0,3.0,42,0.00,,,0.00,meteohub,2013-05-02 09:39:00,
2013-05-02 02:44:00,31.5,10.9,30.69,South,169,2.0,3.0,42,0.00,,,0.00,meteohub,2013-05-02 09:44:00,
2013-05-02 02:49:00,31.5,10.9,30.69,South,175,2.0,3.0,42,0.00,,,0.00,meteohub,2013-05-02 09:49:00,
2013-05-02 02:54:00,31.6,11.1,30.69,South,173,3.0,4.0,42,0.00,,,0.00,meteohub,2013-05-02 09:54:00,
2013-05-02 02:59:00,31.5,10.9,30.69,South,171,3.0,4.0,42,0.00,,,0.00,meteohub,2013-05-02 09:59:00,
2013-05-02 03:04:00,31.1,10.8,30.69,SSE,158,2.0,4.0,42,0.00,,,0.00,meteohub,2013-05-02 10:04:00,
2013-05-02 03:09:00,30.7,11.5,30.70,South,186,2.0,4.0,44,0.00,,,0.00,meteohub,2013-05-02 10:09:00,
2013-05-02 03:14:00,30.6,11.3,30.69,South,181,3.0,4.0,44,0.00,,,0.00,meteohub,2013-05-02 10:14:00,
2013-05-02 03:19:00,30.6,11.3,30.69,SSE,165,3.0,3.0,44,0.00,,,0.00,meteohub,2013-05-02 10:19:00,
2013-05-02 03:24:00,30.7,11.5,30.69,South,173,2.0,4.0,44,0.00,,,0.00,meteohub,2013-05-02 10:24:00,
2013-05-02 03:29:00,30.6,11.3,30.69,SSE,165,2.0,4.0,44,0.00,,,0.00,meteohub,2013-05-02 10:29:00,
2013-05-02 03:34:00,30.6,11.3,30.70,South,178,3.0,4.0,44,0.00,,,0.00,meteohub,2013-05-02 10:34:00,
2013-05-02 03:39:00,30.6,11.7,30.70,SSE,161,2.0,3.0,45,0.00,,,0.00,meteohub,2013-05-02 10:39:00,
2013-05-02 03:44:00,30.4,12.0,30.70,South,173,2.0,4.0,46,0.00,,,0.00,meteohub,2013-05-02 10:44:00,
2013-05-02 03:49:00,30.2,11.8,30.70,South,171,3.0,4.0,46,0.00,,,0.00,meteohub,2013-05-02 10:49:00,
2013-05-02 03:54:00,30.0,11.7,30.70,SE,138,2.0,4.0,46,0.00,,,0.00,meteohub,2013-05-02 10:54:00,
2013-05-02 04:00:00,29.8,11.7,30.70,SSE,167,3.0,4.0,46,0.00,,,0.00,meteohub,2013-05-02 11:00:00,
2013-05-02 04:05:00,29.7,11.8,30.70,SSE,163,4.0,4.0,47,0.00,,,0.00,meteohub,2013-05-02 11:05:00,
2013-05-02 04:10:00,29.7,11.8,30.70,South,171,3.0,4.0,47,0.00,,,0.00,meteohub,2013-05-02 11:10:00,
2013-05-02 04:15:00,29.7,12.4,30.70,SSE,160,3.0,4.0,48,0.00,,,0.00,meteohub,2013-05-02 11:15:00,
2013-05-02 04:20:00,29.5,12.2,30.70,SSE,157,2.0,4.0,48,0.00,,,0.00,meteohub,2013-05-02 11:20:00,
2013-05-02 04:25:00,29.3,12.6,30.70,SSE,161,1.0,4.0,49,0.00,,,0.00,meteohub,2013-05-02 11:25:00,
2013-05-02 04:30:00,29.1,12.7,30.70,SSE,167,3.0,4.0,50,0.00,,,0.00,meteohub,2013-05-02 11:30:00,
2013-05-02 04:35:00,28.9,12.2,30.70,SE,141,4.0,4.0,49,0.00,,,0.00,meteohub,2013-05-02 11:35:00,
2013-05-02 04:40:00,29.1,12.4,30.70,South,186,4.0,4.0,49,0.00,,,0.00,meteohub,2013-05-02 11:40:00,
2013-05-02 04:45:00,29.1,12.4,30.70,South,172,3.0,4.0,49,0.00,,,0.00,meteohub,2013-05-02 11:45:00,
2013-05-02 04:50:00,29.1,12.4,30.70,South,173,3.0,4.0,49,0.00,,,0.00,meteohub,2013-05-02 11:50:00,
2013-05-02 04:55:00,29.1,12.7,30.70,South,171,1.0,4.0,50,0.00,,,0.00,meteohub,2013-05-02 11:55:00,
2013-05-02 05:00:00,29.1,12.7,30.70,SSE,163,2.0,4.0,50,0.00,,,0.00,meteohub,2013-05-02 12:00:00,
2013-05-02 05:05:00,29.1,12.4,30.70,SSE,159,2.0,4.0,49,0.00,,,0.00,meteohub,2013-05-02 12:05:00,
2013-05-02 05:10:00,28.9,12.2,30.70,SSE,159,4.0,4.0,49,0.00,,,0.00,meteohub,2013-05-02 12:10:00,
2013-05-02 05:15:00,28.9,12.6,30.69,SSW,198,3.0,4.0,50,0.00,,,0.00,meteohub,2013-05-02 12:15:00,
2013-05-02 05:20:00,28.8,12.9,30.69,SSE,165,3.0,5.0,51,0.00,,,0.00,meteohub,2013-05-02 12:20:00,
2013-05-02 05:25:00,28.8,12.4,30.69,SSE,161,3.0,5.0,50,0.00,,,0.00,meteohub,2013-05-02 12:25:00,
2013-05-02 05:30:00,28.8,12.4,30.69,SSE,165,4.0,5.0,50,0.00,,,0.00,meteohub,2013-05-02 12:30:00,
2013-05-02 05:35:00,28.9,13.1,30.69,South,180,4.0,4.0,51,0.00,,,0.00,meteohub,2013-05-02 12:35:00,
2013-05-02 05:40:00,28.9,13.1,30.69,SSE,158,2.0,4.0,51,0.00,,,0.00,meteohub,2013-05-02 12:40:00,
2013-05-02 05:45:00,28.8,12.9,30.69,SSE,166,3.0,4.0,51,0.00,,,0.00,meteohub,2013-05-02 12:45:00,
2013-05-02 05:50:00,28.8,12.9,30.69,SSE,167,4.0,4.0,51,0.00,,,0.00,meteohub,2013-05-02 12:50:00,
2013-05-02 05:55:00,28.8,12.9,30.70,SSE,166,3.0,4.0,51,0.00,,,0.00,meteohub,2013-05-02 12:55:00,
2013-05-02 06:00:00,28.8,12.9,30.70,South,179,3.0,4.0,51,0.00,,,0.00,meteohub,2013-05-02 13:00:00,
2013-05-02 06:05:00,28.8,13.3,30.70,SSE,166,2.0,4.0,52,0.00,,,0.00,meteohub,2013-05-02 13:05:00,
2013-05-02 06:10:00,28.9,13.5,30.71,SSE,159,2.0,4.0,52,0.00,,,0.00,meteohub,2013-05-02 13:10:00,
2013-05-02 06:15:00,28.9,13.1,30.71,South,174,2.0,4.0,51,0.00,,,0.00,meteohub,2013-05-02 13:15:00,
2013-05-02 06:20:00,28.9,13.5,30.71,SSE,163,3.0,4.0,52,0.00,,,0.00,meteohub,2013-05-02 13:20:00,
2013-05-02 06:25:00,28.9,13.5,30.71,SSW,209,2.0,4.0,52,0.00,,,0.00,meteohub,2013-05-02 13:25:00,
2013-05-02 06:30:00,29.3,13.5,30.71,South,170,2.0,4.0,51,0.00,,,0.00,meteohub,2013-05-02 13:30:00,
2013-05-02 06:35:00,29.7,13.8,30.71,SSE,168,3.0,4.0,51,0.00,,,0.00,meteohub,2013-05-02 13:35:00,
2013-05-02 06:40:00,29.7,13.3,30.71,SE,128,3.0,4.0,50,0.00,,,0.00,meteohub,2013-05-02 13:40:00,
2013-05-02 06:46:00,29.8,12.9,30.71,SSE,159,3.0,4.0,49,0.00,,,0.00,meteohub,2013-05-02 13:46:00,
2013-05-02 06:51:00,30.2,13.8,30.72,SSE,165,2.0,4.0,50,0.00,,,0.00,meteohub,2013-05-02 13:51:00,
2013-05-02 06:56:00,30.9,14.0,30.72,SSE,156,1.0,4.0,49,0.00,,,0.00,meteohub,2013-05-02 13:56:00,
2013-05-02 07:01:00,32.2,14.2,30.72,SSE,166,0.0,4.0,47,0.00,,,0.00,meteohub,2013-05-02 14:01:00,
2013-05-02 07:06:00,33.3,14.7,30.72,SSE,160,1.0,3.0,46,0.00,,,0.00,meteohub,2013-05-02 14:06:00,
2013-05-02 07:11:00,34.0,14.4,30.72,SSE,163,2.0,3.0,44,0.00,,,0.00,meteohub,2013-05-02 14:11:00,
2013-05-02 07:16:00,34.7,15.1,30.72,SSE,162,2.0,4.0,44,0.00,,,0.00,meteohub,2013-05-02 14:16:00,
2013-05-02 07:21:00,35.2,14.9,30.72,SSE,163,2.0,4.0,43,0.00,,,0.00,meteohub,2013-05-02 14:21:00,
2013-05-02 07:26:00,36.1,14.7,30.72,SSE,163,2.0,3.0,41,0.00,,,0.00,meteohub,2013-05-02 14:26:00,
2013-05-02 07:31:00,37.2,15.6,30.73,SSE,161,2.0,3.0,41,0.00,,,0.00,meteohub,2013-05-02 14:31:00,
2013-05-02 07:36:00,37.9,15.3,30.73,SSE,153,1.0,2.0,39,0.00,,,0.00,meteohub,2013-05-02 14:36:00,
2013-05-02 07:41:00,39.2,16.3,30.73,SSE,155,1.0,2.0,39,0.00,,,0.00,meteohub,2013-05-02 14:41:00,
2013-05-02 07:46:00,39.9,16.9,30.73,SSE,155,0.0,2.0,39,0.00,,,0.00,meteohub,2013-05-02 14:46:00,
2013-05-02 07:51:00,41.2,16.9,30.73,SSE,155,0.0,2.0,37,0.00,,,0.00,meteohub,2013-05-02 14:51:00,
2013-05-02 07:56:00,42.4,17.4,30.73,SE,146,0.0,2.0,36,0.00,,,0.00,meteohub,2013-05-02 14:56:00,
2013-05-02 08:01:00,43.9,18.0,30.73,SE,145,0.0,1.0,35,0.00,,,0.00,meteohub,2013-05-02 15:01:00,
2013-05-02 08:06:00,45.0,15.4,30.72,SE,146,0.0,1.0,30,0.00,,,0.00,meteohub,2013-05-02 15:06:00,
2013-05-02 08:11:00,46.0,14.7,30.72,SE,141,0.0,2.0,28,0.00,,,0.00,meteohub,2013-05-02 15:11:00,
2013-05-02 08:16:00,47.3,15.1,30.72,SE,146,0.0,2.0,27,0.00,,,0.00,meteohub,2013-05-02 15:16:00,
2013-05-02 08:21:00,47.8,14.5,30.72,SE,140,0.0,2.0,26,0.00,,,0.00,meteohub,2013-05-02 15:21:00,
2013-05-02 08:26:00,47.5,16.9,30.72,WSW,242,1.0,2.0,29,0.00,,,0.00,meteohub,2013-05-02 15:26:00,
2013-05-02 08:31:00,46.6,16.9,30.72,NNW,340,0.0,2.0,30,0.00,,,0.00,meteohub,2013-05-02 15:31:00,
2013-05-02 08:36:00,45.7,21.6,30.72,NW,323,2.0,2.0,38,0.00,,,0.00,meteohub,2013-05-02 15:36:00,
2013-05-02 08:41:00,44.4,21.0,30.72,NW,323,2.0,3.0,39,0.00,,,0.00,meteohub,2013-05-02 15:41:00,
2013-05-02 08:46:00,44.1,18.1,30.71,North,5,2.0,3.0,35,0.00,,,0.00,meteohub,2013-05-02 15:46:00,
2013-05-02 08:51:00,44.1,20.7,30.71,NNW,336,1.0,3.0,39,0.00,,,0.00,meteohub,2013-05-02 15:51:00,
2013-05-02 08:56:00,43.9,18.7,30.72,NNW,334,1.0,2.0,36,0.00,,,0.00,meteohub,2013-05-02 15:56:00,
2013-05-02 09:01:00,44.1,18.9,30.71,NNW,327,1.0,2.0,36,0.00,,,0.00,meteohub,2013-05-02 16:01:00,
2013-05-02 09:06:00,44.4,19.0,30.71,NW,325,0.0,2.0,36,0.00,,,0.00,meteohub,2013-05-02 16:06:00,
2013-05-02 09:11:00,45.0,20.3,30.71,NW,320,0.0,2.0,37,0.00,,,0.00,meteohub,2013-05-02 16:11:00,
2013-05-02 09:16:00,45.7,20.8,30.71,NW,321,0.0,2.0,37,0.00,,,0.00,meteohub,2013-05-02 16:16:00,
2013-05-02 09:22:00,46.8,21.9,30.71,NW,321,0.0,2.0,37,0.00,,,0.00,meteohub,2013-05-02 16:22:00,
2013-05-02 09:27:00,48.0,23.5,30.71,NW,322,0.0,2.0,38,0.00,,,0.00,meteohub,2013-05-02 16:27:00,
2013-05-02 09:32:00,48.4,21.9,30.71,NW,322,0.0,1.0,35,0.00,,,0.00,meteohub,2013-05-02 16:32:00,
2013-05-02 09:37:00,48.0,21.7,30.71,NNW,331,2.0,2.0,35,0.00,,,0.00,meteohub,2013-05-02 16:37:00,
2013-05-02 09:42:00,47.3,23.5,30.71,NW,324,3.0,3.0,39,0.00,,,0.00,meteohub,2013-05-02 16:42:00,
2013-05-02 09:47:00,46.4,21.6,30.71,NW,321,2.0,4.0,37,0.00,,,0.00,meteohub,2013-05-02 16:47:00,
2013-05-02 09:52:00,46.2,25.0,30.71,NW,323,3.0,4.0,43,0.00,,,0.00,meteohub,2013-05-02 16:52:00,
2013-05-02 09:57:00,45.7,27.7,30.71,NW,322,5.0,5.0,49,0.00,,,0.00,meteohub,2013-05-02 16:57:00,
2013-05-02 10:02:00,45.3,24.1,30.71,NW,320,2.0,5.0,43,0.00,,,0.00,meteohub,2013-05-02 17:02:00,
2013-05-02 10:07:00,45.5,24.8,30.70,North,349,0.0,5.0,44,0.00,,,0.00,meteohub,2013-05-02 17:07:00,
2013-05-02 10:12:00,46.0,23.7,30.70,NNW,327,1.0,5.0,41,0.00,,,0.00,meteohub,2013-05-02 17:12:00,
2013-05-02 10:17:00,46.0,24.3,30.70,NNW,340,2.0,3.0,42,0.00,,,0.00,meteohub,2013-05-02 17:17:00,
2013-05-02 10:22:00,46.0,24.3,30.70,NNW,330,0.0,4.0,42,0.00,,,0.00,meteohub,2013-05-02 17:22:00,
2013-05-02 10:27:00,46.8,24.3,30.70,NW,324,0.0,4.0,41,0.00,,,0.00,meteohub,2013-05-02 17:27:00,
2013-05-02 10:32:00,47.1,22.1,30.70,NW,319,2.0,4.0,37,0.00,,,0.00,meteohub,2013-05-02 17:32:00,
2013-05-02 10:37:00,47.1,20.1,30.70,NNW,331,1.0,3.0,34,0.00,,,0.00,meteohub,2013-05-02 17:37:00,
2013-05-02 10:42:00,46.8,28.6,30.70,NW,326,3.0,4.0,49,0.00,,,0.00,meteohub,2013-05-02 17:42:00,
2013-05-02 10:47:00,46.2,24.4,30.70,NW,321,3.0,4.0,42,0.00,,,0.00,meteohub,2013-05-02 17:47:00,
2013-05-02 10:52:00,45.9,26.8,30.70,NW,326,3.0,4.0,47,0.00,,,0.00,meteohub,2013-05-02 17:52:00,
2013-05-02 10:57:00,45.9,24.1,30.70,NW,321,4.0,4.0,42,0.00,,,0.00,meteohub,2013-05-02 17:57:00,
2013-05-02 11:02:00,46.0,24.3,30.70,NNW,327,4.0,4.0,42,0.00,,,0.00,meteohub,2013-05-02 18:02:00,
2013-05-02 11:07:00,46.2,26.6,30.70,NW,320,3.0,5.0,46,0.00,,,0.00,meteohub,2013-05-02 18:07:00,
2013-05-02 11:12:00,46.2,23.2,30.70,NW,322,4.0,5.0,40,0.00,,,0.00,meteohub,2013-05-02 18:12:00,
2013-05-02 11:17:00,46.8,25.5,30.70,NW,324,0.0,5.0,43,0.00,,,0.00,meteohub,2013-05-02 18:17:00,
2013-05-02 11:22:00,47.8,27.0,30.69,NNW,337,0.0,5.0,44,0.00,,,0.00,meteohub,2013-05-02 18:22:00,
2013-05-02 11:27:00,48.4,29.1,30.69,NW,304,0.0,5.0,47,0.00,,,0.00,meteohub,2013-05-02 18:27:00,
2013-05-02 11:32:00,49.3,28.2,30.69,SSW,198,1.0,4.0,44,0.00,,,0.00,meteohub,2013-05-02 18:32:00,
2013-05-02 11:37:00,50.9,27.5,30.69,SW,225,0.0,4.0,40,0.00,,,0.00,meteohub,2013-05-02 18:37:00,
2013-05-02 11:42:00,51.4,29.7,30.69,SW,233,0.0,3.0,43,0.00,,,0.00,meteohub,2013-05-02 18:42:00,
2013-05-02 11:47:00,52.2,31.5,30.69,WSW,252,0.0,1.0,45,0.00,,,0.00,meteohub,2013-05-02 18:47:00,
2013-05-02 11:52:00,52.3,29.3,30.69,NW,304,0.0,1.0,41,0.00,,,0.00,meteohub,2013-05-02 18:52:00,
2013-05-02 11:57:00,52.5,29.5,30.69,WNW,298,1.0,1.0,41,0.00,,,0.00,meteohub,2013-05-02 18:57:00,
2013-05-02 12:02:00,52.5,28.9,30.69,WNW,300,0.0,1.0,40,0.00,,,0.00,meteohub,2013-05-02 19:02:00,
2013-05-02 12:07:00,52.7,31.5,30.69,WNW,292,0.0,1.0,44,0.00,,,0.00,meteohub,2013-05-02 19:07:00,
2013-05-02 12:12:00,52.2,30.4,30.69,NNW,327,0.0,1.0,43,0.00,,,0.00,meteohub,2013-05-02 19:12:00,
2013-05-02 12:17:00,52.0,28.9,30.68,NNW,338,0.0,3.0,41,0.00,,,0.00,meteohub,2013-05-02 19:17:00,
2013-05-02 12:22:00,51.6,27.5,30.68,NNW,331,1.0,3.0,39,0.00,,,0.00,meteohub,2013-05-02 19:22:00,
2013-05-02 12:27:00,51.3,24.6,30.68,NNW,340,1.0,4.0,35,0.00,,,0.00,meteohub,2013-05-02 19:27:00,
2013-05-02 12:32:00,51.3,23.2,30.67,North,349,1.0,4.0,33,0.00,,,0.00,meteohub,2013-05-02 19:32:00,
2013-05-02 12:37:00,51.3,26.6,30.67,NNW,336,0.0,4.0,38,0.00,,,0.00,meteohub,2013-05-02 19:37:00,
2013-05-02 12:42:00,51.3,23.9,30.67,NNE,24,1.0,4.0,34,0.00,,,0.00,meteohub,2013-05-02 19:42:00,
2013-05-02 12:47:00,51.1,25.0,30.66,NW,323,2.0,3.0,36,0.00,,,0.00,meteohub,2013-05-02 19:47:00,
2013-05-02 12:52:00,50.9,21.4,30.66,NW,323,3.0,3.0,31,0.00,,,0.00,meteohub,2013-05-02 19:52:00,
2013-05-02 12:57:00,50.4,22.3,30.66,NW,320,3.0,4.0,33,0.00,,,0.00,meteohub,2013-05-02 19:57:00,
2013-05-02 13:02:00,50.2,26.2,30.66,NNW,331,2.0,4.0,39,0.00,,,0.00,meteohub,2013-05-02 20:02:00,
2013-05-02 13:07:00,50.4,25.7,30.66,NW,322,2.0,4.0,38,0.00,,,0.00,meteohub,2013-05-02 20:07:00,
2013-05-02 13:12:00,50.5,25.2,30.65,NW,323,2.0,4.0,37,0.00,,,0.00,meteohub,2013-05-02 20:12:00,
2013-05-02 13:17:00,50.4,27.0,30.66,NW,323,2.0,3.0,40,0.00,,,0.00,meteohub,2013-05-02 20:17:00,
2013-05-02 13:22:00,50.4,27.0,30.65,NW,326,2.0,3.0,40,0.00,,,0.00,meteohub,2013-05-02 20:22:00,
2013-05-02 13:27:00,50.4,27.0,30.65,NNW,333,2.0,3.0,40,0.00,,,0.00,meteohub,2013-05-02 20:27:00,
2013-05-02 13:32:00,50.4,29.8,30.65,NNW,332,2.0,3.0,45,0.00,,,0.00,meteohub,2013-05-02 20:32:00,
2013-05-02 13:37:00,50.4,32.0,30.65,NE,38,4.0,4.0,49,0.00,,,0.00,meteohub,2013-05-02 20:37:00,
2013-05-02 13:42:00,50.0,32.5,30.65,NE,35,4.0,4.0,51,0.00,,,0.00,meteohub,2013-05-02 20:42:00,
2013-05-02 13:47:00,49.8,30.4,30.65,NE,38,4.0,4.0,47,0.00,,,0.00,meteohub,2013-05-02 20:47:00,
2013-05-02 13:52:00,49.8,32.4,30.65,NE,35,3.0,5.0,51,0.00,,,0.00,meteohub,2013-05-02 20:52:00,
2013-05-02 13:57:00,50.2,28.6,30.64,NNE,27,2.0,5.0,43,0.00,,,0.00,meteohub,2013-05-02 20:57:00,
2013-05-02 14:02:00,50.4,30.9,30.64,NNE,32,3.0,5.0,47,0.00,,,0.00,meteohub,2013-05-02 21:02:00,
2013-05-02 14:07:00,50.2,32.2,30.64,North,0,4.0,5.0,50,0.00,,,0.00,meteohub,2013-05-02 21:07:00,
2013-05-02 14:12:00,50.2,29.7,30.64,NNE,19,3.0,4.0,45,0.00,,,0.00,meteohub,2013-05-02 21:12:00,
2013-05-02 14:17:00,50.4,27.5,30.64,NE,35,2.0,4.0,41,0.00,,,0.00,meteohub,2013-05-02 21:17:00,
2013-05-02 14:22:00,50.5,29.5,30.64,NNE,17,2.0,4.0,44,0.00,,,0.00,meteohub,2013-05-02 21:22:00,
2013-05-02 14:27:00,50.9,31.5,30.64,NNW,344,2.0,4.0,47,0.00,,,0.00,meteohub,2013-05-02 21:27:00,
2013-05-02 14:32:00,51.1,30.6,30.64,NNW,331,2.0,3.0,45,0.00,,,0.00,meteohub,2013-05-02 21:32:00,
2013-05-02 14:37:00,51.1,29.8,30.63,NNW,327,1.0,2.0,44,0.00,,,0.00,meteohub,2013-05-02 21:37:00,
2013-05-02 14:42:00,51.3,29.5,30.63,NNW,337,2.0,2.0,43,0.00,,,0.00,meteohub,2013-05-02 21:42:00,
2013-05-02 14:47:00,51.6,30.9,30.63,NNW,340,1.0,2.0,45,0.00,,,0.00,meteohub,2013-05-02 21:47:00,
2013-05-02 14:52:00,52.0,30.2,30.63,NNW,331,1.0,2.0,43,0.00,,,0.00,meteohub,2013-05-02 21:52:00,
2013-05-02 14:57:00,52.2,29.8,30.62,NNW,331,0.0,2.0,42,0.00,,,0.00,meteohub,2013-05-02 21:57:00,
2013-05-02 15:02:00,52.3,31.6,30.62,North,5,1.0,2.0,45,0.00,,,0.00,meteohub,2013-05-02 22:02:00,
2013-05-02 15:07:00,52.9,30.9,30.62,North,5,0.0,2.0,43,0.00,,,0.00,meteohub,2013-05-02 22:07:00,
2013-05-02 15:12:00,52.9,29.3,30.61,North,350,1.0,2.0,40,0.00,,,0.00,meteohub,2013-05-02 22:12:00,
2013-05-02 15:17:00,52.9,28.6,30.61,NNW,331,1.0,2.0,39,0.00,,,0.00,meteohub,2013-05-02 22:17:00,
2013-05-02 15:22:00,53.1,28.8,30.61,NNW,348,0.0,1.0,39,0.00,,,0.00,meteohub,2013-05-02 22:22:00,
2013-05-02 15:27:00,53.2,29.5,30.61,NNW,348,0.0,1.0,40,0.00,,,0.00,meteohub,2013-05-02 22:27:00,
2013-05-02 15:32:00,53.6,28.6,30.61,NNW,342,1.0,1.0,38,0.00,,,0.00,meteohub,2013-05-02 22:32:00,
2013-05-02 15:37:00,53.8,28.0,30.61,NNW,347,1.0,1.0,37,0.00,,,0.00,meteohub,2013-05-02 22:37:00,
2013-05-02 15:42:00,54.1,28.4,30.60,NNW,338,1.0,1.0,37,0.00,,,0.00,meteohub,2013-05-02 22:42:00,
2013-05-02 15:47:00,54.0,27.0,30.60,NNW,327,1.0,2.0,35,0.00,,,0.00,meteohub,2013-05-02 22:47:00,
2013-05-02 15:52:00,54.0,27.0,30.60,NNW,327,2.0,2.0,35,0.00,,,0.00,meteohub,2013-05-02 22:52:00,
2013-05-02 15:57:00,54.0,28.9,30.60,NNW,329,1.0,2.0,38,0.00,,,0.00,meteohub,2013-05-02 22:57:00,
2013-05-02 16:02:00,54.1,27.7,30.59,North,11,1.0,2.0,36,0.00,,,0.00,meteohub,2013-05-02 23:02:00,
2013-05-02 16:07:00,54.1,30.4,30.59,NE,34,2.0,2.0,40,0.00,,,0.00,meteohub,2013-05-02 23:07:00,
2013-05-02 16:12:00,54.0,34.2,30.60,NNE,15,2.0,3.0,47,0.00,,,0.00,meteohub,2013-05-02 23:12:00,
2013-05-02 16:17:00,54.1,32.7,30.60,NE,51,1.0,3.0,44,0.00,,,0.00,meteohub,2013-05-02 23:17:00,
2013-05-02 16:22:00,54.7,30.9,30.59,NE,51,2.0,3.0,40,0.00,,,0.00,meteohub,2013-05-02 23:22:00,
2013-05-02 16:27:00,54.9,31.6,30.59,NE,49,2.0,3.0,41,0.00,,,0.00,meteohub,2013-05-02 23:27:00,
2013-05-02 16:32:00,54.9,32.2,30.59,NE,49,1.0,3.0,42,0.00,,,0.00,meteohub,2013-05-02 23:32:00,
2013-05-02 16:37:00,55.6,27.0,30.59,NE,49,1.0,3.0,33,0.00,,,0.00,meteohub,2013-05-02 23:37:00,
2013-05-02 16:42:00,55.8,26.4,30.59,NE,49,2.0,3.0,32,0.00,,,0.00,meteohub,2013-05-02 23:42:00,
2013-05-02 16:47:00,55.8,29.1,30.59,NNE,20,0.0,2.0,36,0.00,,,0.00,meteohub,2013-05-02 23:47:00,
2013-05-02 16:52:00,55.9,30.0,30.59,NNE,20,0.0,2.0,37,0.00,,,0.00,meteohub,2013-05-02 23:52:00,
2013-05-02 16:57:00,56.5,27.7,30.58,NNE,20,0.0,2.0,33,0.00,,,0.00,meteohub,2013-05-02 23:57:00,
2013-05-02 17:02:00,57.0,25.9,30.58,NNE,26,0.0,1.0,30,0.00,,,0.00,meteohub,2013-05-03 00:02:00,
2013-05-02 17:07:00,57.0,26.6,30.58,NNE,26,0.0,1.0,31,0.00,,,0.00,meteohub,2013-05-03 00:07:00,
2013-05-02 17:12:00,57.7,25.7,30.58,NNE,26,1.0,1.0,29,0.00,,,0.00,meteohub,2013-05-03 00:12:00,
2013-05-02 17:17:00,57.7,28.0,30.58,NNE,26,1.0,1.0,32,0.00,,,0.00,meteohub,2013-05-03 00:17:00,
2013-05-02 17:22:00,57.6,27.9,30.58,NNE,12,0.0,1.0,32,0.00,,,0.00,meteohub,2013-05-03 00:22:00,
2013-05-02 17:27:00,57.6,28.6,30.58,NNE,12,0.0,2.0,33,0.00,,,0.00,meteohub,2013-05-03 00:27:00,
2013-05-02 17:32:00,57.9,24.1,30.58,NNE,12,0.0,2.0,27,0.00,,,0.00,meteohub,2013-05-03 00:32:00,
2013-05-02 17:37:00,58.5,23.7,30.58,NNE,12,0.0,2.0,26,0.00,,,0.00,meteohub,2013-05-03 00:37:00,
2013-05-02 17:42:00,58.3,27.9,30.58,NNE,24,0.0,1.0,31,0.00,,,0.00,meteohub,2013-05-03 00:42:00,
2013-05-02 17:47:00,57.9,31.1,30.58,NW,325,0.0,0.0,36,0.00,,,0.00,meteohub,2013-05-03 00:47:00,
2013-05-02 17:52:00,58.5,20.8,30.58,NW,325,0.0,3.0,23,0.00,,,0.00,meteohub,2013-05-03 00:52:00,
2013-05-02 17:57:00,58.5,23.7,30.58,NW,324,1.0,3.0,26,0.00,,,0.00,meteohub,2013-05-03 00:57:00,
2013-05-02 18:02:00,58.3,24.4,30.57,NW,325,1.0,1.0,27,0.00,,,0.00,meteohub,2013-05-03 01:02:00,
2013-05-02 18:07:00,58.3,27.0,30.57,NW,325,1.0,1.0,30,0.00,,,0.00,meteohub,2013-05-03 01:07:00,
2013-05-02 18:12:00,58.1,29.1,30.57,NW,324,2.0,2.0,33,0.00,,,0.00,meteohub,2013-05-03 01:12:00,
2013-05-02 18:17:00,57.7,40.3,30.57,NW,325,0.0,3.0,52,0.00,,,0.00,meteohub,2013-05-03 01:17:00,
2013-05-02 18:22:00,57.2,43.0,30.57,NNW,342,6.0,6.0,59,0.00,,,0.00,meteohub,2013-05-03 01:22:00,
2013-05-02 18:27:00,55.9,39.0,30.57,NW,321,0.0,6.0,53,0.00,,,0.00,meteohub,2013-05-03 01:27:00,
2013-05-02 18:32:00,55.8,41.7,30.57,NNW,338,0.0,7.0,59,0.00,,,0.00,meteohub,2013-05-03 01:32:00,
2013-05-02 18:37:00,55.6,41.0,30.57,NNW,333,0.0,7.0,58,0.00,,,0.00,meteohub,2013-05-03 01:37:00,
2013-05-02 18:42:00,55.6,38.3,30.56,NNW,333,1.0,3.0,52,0.00,,,0.00,meteohub,2013-05-03 01:42:00,
2013-05-02 18:47:00,55.8,41.2,30.56,North,0,0.0,2.0,58,0.00,,,0.00,meteohub,2013-05-03 01:47:00,
2013-05-02 18:52:00,55.9,39.9,30.56,North,355,0.0,2.0,55,0.00,,,0.00,meteohub,2013-05-03 01:52:00,
2013-05-02 18:57:00,55.8,32.4,30.56,North,355,0.0,1.0,41,0.00,,,0.00,meteohub,2013-05-03 01:57:00,
2013-05-02 19:02:00,55.6,29.7,30.56,North,0,0.0,1.0,37,0.00,,,0.00,meteohub,2013-05-03 02:02:00,
2013-05-02 19:07:00,55.6,28.4,30.56,North,0,0.0,1.0,35,0.00,,,0.00,meteohub,2013-05-03 02:07:00,
2013-05-02 19:12:00,55.6,27.0,30.56,North,0,0.0,1.0,33,0.00,,,0.00,meteohub,2013-05-03 02:12:00,
2013-05-02 19:17:00,55.8,34.2,30.56,North,355,0.0,1.0,44,0.00,,,0.00,meteohub,2013-05-03 02:17:00,
2013-05-02 19:22:00,55.6,27.7,30.56,North,0,0.0,1.0,34,0.00,,,0.00,meteohub,2013-05-03 02:22:00,
2013-05-02 19:27:00,55.8,24.8,30.56,North,0,0.0,1.0,30,0.00,,,0.00,meteohub,2013-05-03 02:27:00,
2013-05-02 19:32:00,55.8,23.9,30.56,North,0,0.0,1.0,29,0.00,,,0.00,meteohub,2013-05-03 02:32:00,
2013-05-02 19:37:00,55.8,24.8,30.56,NNE,32,0.0,0.0,30,0.00,,,0.00,meteohub,2013-05-03 02:37:00,
2013-05-02 19:42:00,55.6,23.0,30.56,ESE,111,0.0,1.0,28,0.00,,,0.00,meteohub,2013-05-03 02:42:00,
2013-05-02 19:47:00,55.4,24.4,30.56,ESE,111,0.0,1.0,30,0.00,,,0.00,meteohub,2013-05-03 02:47:00,
2013-05-02 19:52:00,55.0,22.5,30.56,ESE,110,0.0,1.0,28,0.00,,,0.00,meteohub,2013-05-03 02:52:00,
2013-05-02 19:57:00,54.9,22.3,30.56,SSE,167,0.0,1.0,28,0.00,,,0.00,meteohub,2013-05-03 02:57:00,
2013-05-02 20:02:00,54.7,23.9,30.56,SSE,161,1.0,1.0,30,0.00,,,0.00,meteohub,2013-05-03 03:02:00,
2013-05-02 20:07:00,54.3,24.3,30.57,SSE,159,1.0,2.0,31,0.00,,,0.00,meteohub,2013-05-03 03:07:00,
2013-05-02 20:12:00,54.0,24.8,30.56,South,172,2.0,2.0,32,0.00,,,0.00,meteohub,2013-05-03 03:12:00,
2013-05-02 20:17:00,53.8,25.3,30.56,SSE,161,1.0,2.0,33,0.00,,,0.00,meteohub,2013-05-03 03:17:00,
2013-05-02 20:22:00,53.6,25.2,30.56,SSE,154,1.0,2.0,33,0.00,,,0.00,meteohub,2013-05-03 03:22:00,
2013-05-02 20:27:00,53.2,24.8,30.56,SSE,153,0.0,2.0,33,0.00,,,0.00,meteohub,2013-05-03 03:27:00,
2013-05-02 20:32:00,53.1,24.8,30.56,SSE,161,0.0,2.0,33,0.00,,,0.00,meteohub,2013-05-03 03:32:00,
2013-05-02 20:37:00,52.7,25.2,30.57,SSE,155,1.0,2.0,34,0.00,,,0.00,meteohub,2013-05-03 03:37:00,
2013-05-02 20:42:00,52.2,24.6,30.57,SSE,166,2.0,2.0,34,0.00,,,0.00,meteohub,2013-05-03 03:42:00,
2013-05-02 20:47:00,52.0,25.2,30.57,South,172,2.0,2.0,35,0.00,,,0.00,meteohub,2013-05-03 03:47:00,
2013-05-02 20:52:00,51.8,26.4,30.57,SSE,153,3.0,3.0,37,0.00,,,0.00,meteohub,2013-05-03 03:52:00,
2013-05-02 20:57:00,51.6,26.2,30.57,SSE,158,2.0,3.0,37,0.00,,,0.00,meteohub,2013-05-03 03:57:00,
2013-05-02 21:01:00,51.4,26.6,30.57,SSE,159,2.0,3.0,38,0.00,,,0.00,meteohub,2013-05-03 04:01:00,
2013-05-02 21:02:00,51.4,26.6,30.57,SSE,153,2.0,3.0,38,0.00,,,0.00,meteohub,2013-05-03 04:02:00,
2013-05-02 21:07:00,51.3,27.1,30.57,SSE,155,2.0,3.0,39,0.00,,,0.00,meteohub,2013-05-03 04:07:00,
2013-05-02 21:12:00,51.1,27.0,30.57,SSE,157,2.0,3.0,39,0.00,,,0.00,meteohub,2013-05-03 04:12:00,
2013-05-02 21:17:00,50.9,27.5,30.57,South,174,2.0,3.0,40,0.00,,,0.00,meteohub,2013-05-03 04:17:00,
2013-05-02 21:22:00,50.7,27.9,30.57,South,173,2.0,3.0,41,0.00,,,0.00,meteohub,2013-05-03 04:22:00,
2013-05-02 21:27:00,50.5,28.2,30.57,SSE,168,2.0,3.0,42,0.00,,,0.00,meteohub,2013-05-03 04:27:00,
2013-05-02 21:32:00,50.4,29.3,30.57,South,171,2.0,2.0,44,0.00,,,0.00,meteohub,2013-05-03 04:32:00,
2013-05-02 21:37:00,50.2,29.7,30.57,SSE,154,1.0,2.0,45,0.00,,,0.00,meteohub,2013-05-03 04:37:00,
2013-05-02 21:42:00,49.8,30.9,30.57,SSE,153,1.0,2.0,48,0.00,,,0.00,meteohub,2013-05-03 04:42:00,
2013-05-02 21:47:00,49.5,30.6,30.57,SE,144,0.0,2.0,48,0.00,,,0.00,meteohub,2013-05-03 04:47:00,
2013-05-02 21:52:00,49.1,30.7,30.58,SE,144,0.0,1.0,49,0.00,,,0.00,meteohub,2013-05-03 04:52:00,
2013-05-02 21:57:00,48.7,30.4,30.57,SE,144,0.0,1.0,49,0.00,,,0.00,meteohub,2013-05-03 04:57:00,
2013-05-02 22:02:00,48.4,31.1,30.57,SE,144,0.0,1.0,51,0.00,,,0.00,meteohub,2013-05-03 05:02:00,
2013-05-02 22:07:00,48.0,31.3,30.57,SE,144,0.0,1.0,52,0.00,,,0.00,meteohub,2013-05-03 05:07:00,
2013-05-02 22:12:00,47.8,32.0,30.57,SE,144,0.0,1.0,54,0.00,,,0.00,meteohub,2013-05-03 05:12:00,
2013-05-02 22:17:00,47.7,31.8,30.57,SSE,166,1.0,1.0,54,0.00,,,0.00,meteohub,2013-05-03 05:17:00,
2013-05-02 22:22:00,47.5,31.6,30.57,SSE,161,0.0,2.0,54,0.00,,,0.00,meteohub,2013-05-03 05:22:00,
2013-05-02 22:27:00,47.5,32.2,30.57,South,169,1.0,2.0,55,0.00,,,0.00,meteohub,2013-05-03 05:27:00,
2013-05-02 22:32:00,47.1,32.2,30.57,South,175,0.0,2.0,56,0.00,,,0.00,meteohub,2013-05-03 05:32:00,
2013-05-02 22:37:00,47.1,32.2,30.57,SSE,164,2.0,2.0,56,0.00,,,0.00,meteohub,2013-05-03 05:37:00,
2013-05-02 22:42:00,47.1,32.2,30.57,SSW,202,2.0,3.0,56,0.00,,,0.00,meteohub,2013-05-03 05:42:00,
2013-05-02 22:47:00,46.9,32.5,30.57,SSE,149,2.0,3.0,57,0.00,,,0.00,meteohub,2013-05-03 05:47:00,
2013-05-02 22:52:00,46.6,33.1,30.57,SSE,158,1.0,3.0,59,0.00,,,0.00,meteohub,2013-05-03 05:52:00,
2013-05-02 22:57:00,46.4,33.3,30.56,South,181,2.0,3.0,60,0.00,,,0.00,meteohub,2013-05-03 05:57:00,
2013-05-02 23:02:00,46.2,33.1,30.56,South,186,1.0,3.0,60,0.00,,,0.00,meteohub,2013-05-03 06:02:00,
2013-05-02 23:07:00,46.0,32.9,30.56,South,182,2.0,3.0,60,0.00,,,0.00,meteohub,2013-05-03 06:07:00,
2013-05-02 23:12:00,46.0,33.3,30.56,SSE,165,1.0,3.0,61,0.00,,,0.00,meteohub,2013-05-03 06:12:00,
2013-05-02 23:18:00,46.0,33.8,30.56,SSE,165,3.0,3.0,62,0.00,,,0.00,meteohub,2013-05-03 06:18:00,
2013-05-02 23:23:00,45.9,33.6,30.56,South,191,1.0,3.0,62,0.00,,,0.00,meteohub,2013-05-03 06:23:00,
2013-05-02 23:28:00,45.7,33.4,30.55,SSE,153,2.0,3.0,62,0.00,,,0.00,meteohub,2013-05-03 06:28:00,
2013-05-02 23:33:00,45.3,33.4,30.55,SSE,156,1.0,3.0,63,0.00,,,0.00,meteohub,2013-05-03 06:33:00,
2013-05-02 23:38:00,45.1,33.3,30.55,SSE,153,1.0,2.0,63,0.00,,,0.00,meteohub,2013-05-03 06:38:00,
2013-05-02 23:43:00,45.0,33.1,30.55,SSE,155,1.0,2.0,63,0.00,,,0.00,meteohub,2013-05-03 06:43:00,
2013-05-02 23:48:00,44.6,33.3,30.55,SSE,155,2.0,2.0,64,0.00,,,0.00,meteohub,2013-05-03 06:48:00,
2013-05-02 23:53:00,44.4,33.1,30.55,SSW,200,1.0,2.0,64,0.00,,,0.00,meteohub,2013-05-03 06:53:00,
2013-05-02 23:58:00,44.4,33.4,30.55,SSE,155,0.0,2.0,65,0.00,,,0.00,meteohub,2013-05-03 06:58:00,